This demonstration page uses our WeatherBlox Daily Observations layout. Learn more.

Left ArrowRight Arrow

39.51506, -84.39828

Hourly Observations for July 31, 2016

Temp ( °F °C ) Dew Point ( °F °C ) Humidity (%) Winds ( mph kmh ) Pressure ( in mb ) Visibility ( mi km ) Precip ( " mm )
12:15 am 00:15 Clear 74 23.6 67 19.5 78 78 N N/A 29.97 1015 10 16 N/A
12:35 am 00:35 Clear 74 23.6 68 20.1 81 81 N N/A 29.97 1015 10 16 N/A
12:55 am 00:55 Clear 74 23.6 67 19.6 78 78 N N/A 29.97 1015 10 16 N/A
1:15 am 01:15 Partly Cloudy 72 22.3 65 18.5 79 79 SSW 3 6 29.97 1015 10 16 N/A
1:35 am 01:35 Clear 73 23 66 19.1 79 79 N N/A 29.97 1015 10 16 N/A
1:55 am 01:55 Clear 74 23.6 67 19.3 77 77 N N/A 29.97 1015 10 16 N/A
2:15 am 02:15 Clear 73 22.5 65 18.6 79 79 SW 3 6 29.97 1015 10 16 N/A
2:35 am 02:35 Clear 73 22.9 67 19.2 80 80 S 3 6 29.94 1014 10 16 N/A
2:55 am 02:55 Clear 71 21.8 65 18.3 81 81 SSW 3 6 29.94 1014 10 16 N/A
3:15 am 03:15 Clear 69 20.8 64 17.7 83 83 N N/A 29.94 1014 10 16 N/A
3:35 am 03:35 Partly Cloudy 69 20.8 64 18 84 84 N N/A 29.94 1014 10 16 N/A
3:55 am 03:55 Clear 69 20.8 64 18 84 84 N N/A 29.94 1014 7 11 N/A
4:15 am 04:15 Clear 69 20.8 65 18.1 85 85 N N/A 29.94 1014 7 11 N/A
4:35 am 04:35 Clear 69 20.8 65 18.1 85 85 N N/A 29.94 1014 7 11 N/A
4:55 am 04:55 Clear 69 20.8 65 18.2 85 85 N N/A 29.94 1014 7 11 N/A
5:15 am 05:15 Mostly Cloudy with Haze 69 20.8 65 18.1 85 85 N N/A 29.97 1015 2 3 N/A
5:35 am 05:35 Mostly Cloudy with Haze 69 20.8 65 18.2 85 85 N N/A 29.97 1015 1 1 N/A
5:55 am 05:55 Hazy 69 20.8 65 18.2 85 85 N N/A 29.97 1015 4 6 N/A
6:15 am 06:15 Hazy 69 20.8 65 18.3 86 86 N N/A 29.97 1015 4 6 N/A
6:35 am 06:35 Clear with Mist and Fog 68 20 64 17.5 86 86 N N/A 29.97 1015 3 4 N/A
6:55 am 06:55 Sunny 69 20.8 65 18.2 85 85 NNW 3 6 29.97 1015 10 16 N/A
7:15 am 07:15 Partly Cloudy 69 20.8 65 18.2 85 85 WNW 5 7 30.00 1016 10 16 N/A
7:35 am 07:35 Partly Cloudy 69 20.8 65 18.1 85 85 N N/A 30.00 1016 10 16 N/A
7:55 am 07:55 Sunny 72 22.3 67 19.3 83 83 N N/A 30.00 1016 10 16 N/A
8:15 am 08:15 Sunny 74 23.6 68 19.9 80 80 N N/A 30.00 1016 10 16 N/A
8:35 am 08:35 Sunny 74 23.6 67 19.7 79 79 N N/A 30.00 1016 10 16 N/A
8:55 am 08:55 Sunny 74 23.6 67 19.5 78 78 N N/A 30.00 1016 10 16 N/A
9:15 am 09:15 Sunny 77 24.8 68 20.2 76 76 N N/A 30.00 1016 10 16 N/A
9:35 am 09:35 Mostly Cloudy 77 25.1 67 19.5 71 71 WSW 3 6 30.00 1016 10 16 N/A
9:55 am 09:55 Mostly Cloudy 77 25.1 66 19 69 69 N N/A 30.00 1016 10 16 N/A
10:15 am 10:15 Partly Cloudy 80 26.5 66 18.8 63 63 SW 3 6 30.00 1016 10 16 N/A
10:35 am 10:35 Partly Cloudy 80 26.9 65 18.2 59 59 W 7 11 30.03 1017 10 16 N/A
10:55 am 10:55 Partly Cloudy 80 26.5 66 18.7 62 62 WNW 6 9 30.03 1017 10 16 N/A
11:15 am 11:15 Partly Cloudy 81 27.2 64 17.7 56 56 WSW 6 9 30.03 1017 10 16 N/A
11:35 am 11:35 Partly Cloudy 82 27.5 63 17 53 53 W 7 11 30.03 1017 10 16 N/A
11:55 am 11:55 Partly Cloudy 82 28 61 16.3 49 49 W 6 9 30.03 1017 10 16 N/A
12:15 pm 12:15 Partly Cloudy 81 27.4 61 16.1 50 50 W 9 15 30.03 1017 10 16 N/A
12:35 pm 12:35 Partly Cloudy 83 28.4 60 15.3 45 45 W 9 15 30.03 1017 10 16 N/A
12:55 pm 12:55 Partly Cloudy 84 28.8 59 14.8 42 42 W 9 15 29.97 1015 10 16 N/A
1:15 pm 13:15 Sunny 84 28.7 59 15 43 43 W 5 7 29.97 1015 10 16 N/A
1:35 pm 13:35 Partly Cloudy 84 28.7 60 15.3 44 44 SW 10 17 29.97 1015 10 16 N/A
1:55 pm 13:55 Partly Cloudy 84 28.8 59 14.8 42 42 W 5 7 29.97 1015 10 16 N/A
2:15 pm 14:15 Partly Cloudy 84 29.1 59 15.1 43 43 SW 6 9 29.97 1015 10 16 N/A
2:35 pm 14:35 Sunny 88 30.9 58 14.5 37 37 W 5 7 29.97 1015 10 16 N/A
2:55 pm 14:55 Partly Cloudy 87 30.7 60 15.4 40 40 SW 9 15 29.97 1015 10 16 N/A
3:15 pm 15:15 Partly Cloudy 88 31.3 60 15.7 39 39 W 8 13 29.97 1015 10 16 N/A
3:35 pm 15:35 Partly Cloudy 87 30.7 61 15.9 41 41 WSW 8 13 29.97 1015 10 16 N/A
3:55 pm 15:55 Partly Cloudy 89 31.6 62 16.4 40 40 W 8 13 29.97 1015 10 16 N/A
4:15 pm 16:15 Partly Cloudy 90 32.1 63 17.1 41 41 W 7 11 29.97 1015 10 16 N/A
4:35 pm 16:35 Sunny 90 32.1 63 17.1 41 41 W 7 11 29.94 1014 10 16 N/A
4:55 pm 16:55 Sunny 90 32.1 61 16.2 38 38 WSW 6 9 29.94 1014 10 16 N/A
5:15 pm 17:15 Sunny 90 32.1 63 17.4 41 41 WNW 7 11 29.94 1014 10 16 N/A
5:35 pm 17:35 Sunny 90 32.1 63 17.4 41 41 W 8 13 29.94 1014 10 16 N/A
5:55 pm 17:55 Partly Cloudy 90 32.1 63 17.4 41 41 W 8 13 29.94 1014 10 16 N/A
6:15 pm 18:15 Sunny 88 30.9 61 16.3 41 41 WSW 8 13 29.94 1014 10 16 N/A
6:35 pm 18:35 Sunny 87 30.7 62 16.6 43 43 WSW 7 11 29.94 1014 10 16 N/A
6:55 pm 18:55 Sunny 84 29 60 15.7 44 44 W 7 11 29.94 1014 10 16 N/A
7:15 pm 19:15 Sunny 83 28.6 62 16.5 48 48 W 5 7 29.94 1014 10 16 N/A
7:35 pm 19:35 Sunny 83 28.2 63 17.2 51 51 W 5 7 29.94 1014 10 16 N/A
8:15 pm 20:15 Sunny 81 27.2 65 18.4 59 59 WNW 3 6 30.00 1016 10 16 N/A
8:35 pm 20:35 Sunny 81 27 66 18.7 60 60 N N/A 30.00 1016 10 16 N/A
8:55 pm 20:55 Partly Cloudy 80 26.5 68 19.9 67 67 N N/A 30.00 1016 10 16 N/A
9:15 pm 21:15 Partly Cloudy 77 25.1 67 19.6 72 72 N N/A 30.00 1016 10 16 N/A
9:35 pm 21:35 Partly Cloudy 77 25.1 68 20.2 74 74 N N/A 30.00 1016 10 16 N/A
9:55 pm 21:55 Partly Cloudy 77 24.9 69 20.4 76 76 N N/A 30.00 1016 10 16 N/A
10:15 pm 22:15 Clear 74 23.6 67 19.5 78 78 N N/A 30.00 1016 10 16 N/A
10:35 pm 22:35 Clear 74 23.6 67 19.6 78 78 N N/A 30.03 1017 10 16 N/A
10:55 pm 22:55 Clear 74 23.6 67 19.7 79 79 N 3 6 30.03 1017 10 16 N/A
11:15 pm 23:15 Clear 74 23.6 67 19.6 78 78 N N/A 30.03 1017 10 16 N/A
11:35 pm 23:35 Clear 74 23.6 68 20 80 80 N N/A 30.03 1017 10 16 N/A
11:55 pm 23:55 Clear 74 23.6 68 20.1 81 81 N N/A 30.03 1017 10 16 N/A

Powered by AerisWeather